Home   Weather   Ganderkesee   Past weeks

Flag for Germany Past Weather in Ganderkesee, Lower Saxony, Germany — Yesterday and Last 2 Weeks

Now
48 °F

Clear.


Feels Like: 43 °F
Forecast: 44 / 47 °F
Wind: 14 mph from Southwest

Location: Bremen Airport

Current Time: Dec 10, 2016 at 4:16:08 am

Latest Report: Dec 10, 2016 at 3:20 am


Visibility: 10 mi

Pressure: 30.15 "Hg

Humidity: 87%

Dew Point: 45 °F

Location of GanderkeseeLocation

Past Weather in Ganderkesee — Graph

°F

Ganderkesee Temperature Yesterday

Maximum temperature yesterday: 52 °F (at 11:50 am)
Minimum temperature yesterday: 45 °F (at 12:20 am)
Average temperature yesterday: 49 °F

High & Low Weather Summary for the Past Weeks

 TemperatureHumidityPressure
High52 °F (Dec 9, 11:50 am)100% (Nov 25, 2:20 am)30.60 "Hg (Nov 25, 2:20 am)
Low18 °F (Nov 29, 7:20 am)57% (Dec 2, 1:20 pm)30.01 "Hg (Nov 26, 8:50 pm)
Average35 °F87%30.30 "Hg
* Reported Nov 25 2:20 am — Dec 10 2:50 am, Ganderkesee, Weather by CustomWeather, © 2016

Note: Actual official high and low records may vary slightly from our data, if they occured in-between our weather recording intervals... More about our weather records

Advertising

Ganderkesee Weather History for the Previous 24 Hours

Scroll right to see more
 ConditionsComfort  
Time TempWeatherWind HumidityBarometerVisibility
2:50 am
Sat, Dec 10
48 °FClear.15 mph87%30.15 "Hg10 mi
2:20 am48 °FClear.12 mph87%30.18 "Hg10 mi
1:50 am48 °FClear.9 mph87%30.18 "Hg10 mi
1:20 am48 °FClear.9 mph87%30.18 "Hg10 mi
12:50 am48 °FClear.10 mph87%30.18 "Hg6 mi
12:20 am48 °FPassing clouds.8 mph94%30.18 "Hg4 mi
11:50 pm
Fri, Dec 9
50 °FPartly cloudy.10 mph88%30.18 "Hg4 mi
11:20 pm50 °FPassing clouds.12 mph88%30.21 "Hg4 mi
10:50 pm50 °FFog.13 mph94%30.21 "Hg3 mi
10:20 pm50 °FFog.13 mph94%30.21 "Hg3 mi
9:50 pm50 °FFog.12 mph94%30.21 "Hg3 mi
9:20 pm50 °FFog.14 mph94%30.21 "Hg3 mi
8:50 pm50 °FFog.13 mph94%30.21 "Hg2 mi
8:20 pm50 °FFog.13 mph94%30.21 "Hg2 mi
7:50 pm50 °FDrizzle. Fog.12 mph94%30.24 "Hg1 mi
7:20 pm50 °FDrizzle. Fog.12 mph94%30.24 "Hg1 mi
6:50 pm48 °FDrizzle. Fog.9 mph100%30.21 "Hg1 mi
6:20 pm48 °FDrizzle. Fog.8 mph100%30.24 "Hg1 mi
5:50 pm48 °FFog.8 mph100%30.24 "Hg2 mi
5:20 pm48 °FFog.8 mph100%30.24 "Hg1 mi
4:50 pm48 °FFog.7 mph100%30.27 "Hg2 mi
4:20 pm48 °FFog.10 mph100%30.27 "Hg2 mi
3:50 pm50 °FFog.10 mph94%30.27 "Hg3 mi
3:20 pm50 °FFog.9 mph94%30.27 "Hg3 mi
2:50 pm50 °FDrizzle. Fog.10 mph94%30.27 "Hg2 mi
2:20 pm50 °FDrizzle. Fog.10 mph94%30.27 "Hg1 mi
1:50 pm50 °FDrizzle. Fog.10 mph94%30.30 "Hg3 mi
1:20 pm50 °FPartly sunny.10 mph88%30.30 "Hg5 mi
12:50 pm52 °FBroken clouds.12 mph82%30.30 "Hg5 mi
12:20 pm50 °FPartly sunny.16 mph88%30.30 "Hg4 mi
11:50 am52 °FPartly sunny.15 mph82%30.30 "Hg5 mi
11:20 am50 °FPartly sunny.14 mph94%30.30 "Hg5 mi
10:50 am50 °FPartly sunny.12 mph94%30.27 "Hg5 mi
10:20 am50 °FPartly sunny.13 mph94%30.27 "Hg4 mi
9:50 am50 °FPartly sunny.13 mph94%30.27 "Hg5 mi
9:20 am50 °FPartly sunny.10 mph94%30.27 "Hg4 mi
8:50 am50 °FPartly sunny.15 mph94%30.27 "Hg3 mi
8:20 am48 °FFog.12 mph100%30.24 "Hg2 mi
7:50 am48 °FDrizzle. Fog.13 mph100%30.24 "Hg2 mi
7:20 am48 °FFog.12 mph100%30.24 "Hg2 mi
6:50 am48 °FFog.12 mph94%30.21 "Hg2 mi
6:20 am48 °FFog.13 mph94%30.24 "Hg2 mi
5:20 am46 °FDrizzle. Fog.10 mph100%30.21 "Hg1 mi
4:50 am46 °FFog.10 mph93%30.21 "Hg2 mi
4:20 am46 °FFog.12 mph93%30.21 "Hg2 mi
Weather by CustomWeather, © 2016

See weather overviewHow to use our weather pages